Location: Ermatingen
(47.6706°N, 9.0857°E)
Time: 05:46:28
(UTC+00:00)

Cosmos 1898 Rocket - Pass Details

Date: 18 September 2020
Orbit: 753 x 784 km, 74.0° (Epoch: 27 October)

Event Time Altitude Azimuth Distance (km) Brightness Sun altitude
Rises 18:24:08 0° 205° (SSW) 3,193 6.9 -10.0°
Reaches altitude 10° 18:26:29 10° 207° (SSW) 2,272 6.1 -10.4°
Maximum altitude 18:31:38 77° 294° (WNW) 779 3.7 -11.2°
Drops below altitude 10° 18:36:50 10° 20° (NNE) 2,293 5.9 -12.1°
Sets 18:39:14 0° 22° (NNE) 3,225 6.7 -12.5°
